Probability
7 7 5 1 0 0 0 0 0 0 0 0 0 0 0 0 0 0 0 0 0 0 0 0 0 0 0 0 0 0 0 0 0 0 0 0 0 0 0 0 0 0 0
10 9 6 2 0 0 0 0 0 0 0 0 0 0 0 0 0 0 0 0 0 0 0 0 0 0 0 0 0 0 0 0 0 0 0 0 0 0 0 0 0 0 0
12 11 7 3 1 0 0 0 0 0 0 0 0 0 0 0 0 0 0 0 0 0 0 0 0 0 0 0 0 0 0 0 0 0 0 0 0 0 0 0 0 0 0
11 10 8 4 1 0 0 0 0 0 0 0 0 0 0 0 0 0 0 0 0 0 0 0 0 0 0 0 0 0 0 0 0 0 0 0 0 0 0 0 0 0 0
10 10 8 5 1 0 0 1 0 0 0 0 0 0 0 0 0 0 0 0 0 0 0 0 0 0 0 0 0 0 0 0 0 0 0 0 0 0 0 0 0 0 0
8 9 9 6 2 0 0 1 0 0 0 0 0 0 0 0 0 0 0 0 0 0 0 0 0 0 0 0 0 0 0 0 0 0 0 0 0 0 0 0 0 0 0
7 9 11 8 2 0 0 1 0 0 0 0 0 0 0 0 0 0 0 0 0 0 0 0 0 0 0 0 0 0 0 0 0 0 0 0 0 0 0 0 0 0 0
7 9 11 8 3 1 0 0 0 0 0 0 0 0 0 0 0 0 0 0 0 0 0 0 0 0 0 0 0 0 0 0 0 0 0 0 0 0 0 0 0 0 0
8 9 9 7 5 4 2 0 0 0 0 0 0 0 0 0 0 0 0 0 0 0 0 0 0 0 0 0 0 0 0 0 0 0 0 0 0 0 0 0 0 0 0
10 10 9 7 7 7 5 1 0 0 0 0 0 0 0 0 0 0 0 0 0 0 0 0 0 0 0 0 0 0 0 0 0 0 0 0 0 0 0 0 0 0 0
15 13 10 8 7 7 6 2 0 0 0 0 0 0 0 0 0 0 0 0 0 0 0 0 0 0 0 0 0 0 0 0 0 0 0 0 0 0 0 0 0 0 0
22 20 15 10 7 6 5 4 3 2 1 0 0 0 0 0 0 0 0 0 0 0 0 0 0 0 0 0 0 0 0 0 0 0 0 0 0 0 0 0 0 0 0
30 28 23 18 13 9 8 8 8 7 4 1 1 0 0 0 0 0 0 0 0 0 0 0 0 0 0 0 0 0 0 0 0 0 0 0 0 0 0 0 0 0 0
34 32 29 25 23 19 16 13 12 10 7 3 2 1 0 0 0 0 0 0 0 0 0 0 0 0 0 0 0 0 0 0 0 0 0 0 0 0 0 0 0 0 0
34 32 29 27 26 26 23 20 16 14 11 6 3 1 0 0 0 0 0 0 0 0 0 0 0 0 0 0 0 0 0 0 0 0 0 0 0 0 0 0 0 0 0
32 31 28 25 24 25 25 24 23 20 16 10 6 3 1 1 0 0 0 0 0 0 0 0 0 0 0 0 0 0 0 0 0 0 0 0 0 0 0 0 0 0 0
30 29 27 24 22 23 25 25 25 23 18 12 7 4 2 1 0 0 1 1 0 0 0 0 0 0 0 0 0 0 0 0 0 0 0 0 0 0 0 0 0 0 0
24 25 25 22 20 22 24 25 24 22 18 12 6 3 2 1 0 1 2 1 0 0 0 0 0 0 0 0 0 0 0 0 0 0 0 0 0 0 0 0 0 0 0
19 20 21 20 21 22 23 25 25 22 17 11 5 3 2 1 0 1 1 1 0 0 0 0 0 0 0 0 0 0 0 0 0 0 0 0 0 0 0 0 0 0 0
20 19 19 20 23 24 26 27 26 20 13 7 4 3 1 0 0 0 0 0 0 0 0 0 0 0 0 0 0 0 0 0 0 0 0 0 0 0 0 0 1 0 0
25 23 21 23 27 31 32 31 28 21 13 8 6 4 2 0 0 0 0 0 0 0 0 0 0 0 0 0 0 0 0 0 0 0 0 0 0 0 0 0 0 0 0
30 28 26 28 33 37 39 38 33 26 18 12 9 7 4 1 0 0 0 0 0 0 0 0 0 0 0 0 0 0 0 0 0 0 0 0 0 0 0 0 0 0 0
28 27 27 30 35 39 41 40 33 27 21 15 11 9 7 3 1 0 0 0 0 0 0 0 0 0 0 0 0 0 0 0 0 0 0 0 0 0 0 0 0 0 0
23 22 23 28 32 35 37 34 28 23 20 15 12 12 10 6 3 0 0 0 0 0 0 0 0 0 0 0 0 0 0 0 0 0 0 0 0 0 0 0 0 0 0
18 17 18 22 25 28 29 28 24 21 20 18 15 15 13 9 4 1 0 0 0 0 0 0 0 0 0 0 0 0 0 0 0 0 0 0 0 0 0 0 0 0 0
16 15 16 18 20 23 26 25 23 22 22 20 17 16 13 9 5 2 0 0 0 0 0 0 0 0 0 0 0 0 0 0 0 0 0 0 0 0 0 0 0 0 0
Wind_Speed
14 17 18 15 15 15 15 15 15 15 15 14 14 14 13 13 12 12 12 12 12 12 12 12 12 12 12 12 12 12 12 12 12 13 13 13 13 13 13 12 12 13 14
17 19 18 16 15 15 15 15 15 15 14 14 14 13 13 12 12 11 11 11 12 12 12 12 12 12 12 12 12 12 12 12 12 12 13 13 13 12 11 10 10 12 14
19 19 18 15 16 15 15 15 15 14 14 14 13 13 12 12 11 11 11 11 12 12 12 12 12 12 12 12 12 12 12 12 11 10 9 11 12 11 11 13 14 14 13
19 19 17 18 16 16 15 15 14 14 14 14 13 12 12 12 11 11 11 12 12 12 12 12 12 12 12 11 11 11 11 11 9 6 6 10 11 12 12 13 13 13 13
18 18 18 18 17 16 15 14 14 14 14 13 13 12 12 11 11 11 11 12 12 12 12 12 11 11 11 11 11 11 11 9 5 4 9 9 10 12 12 12 12 13 13
18 18 20 18 17 16 15 15 14 14 13 13 12 12 11 11 11 11 11 11 11 11 11 11 11 10 10 10 10 10 9 6 6 8 8 9 10 11 11 12 12 12 12
18 17 20 17 17 16 15 15 14 13 13 12 12 12 11 11 11 11 11 11 11 11 10 10 10 10 9 9 9 8 7 2 4 8 7 9 10 10 11 11 11 11 11
17 17 19 18 16 16 15 14 14 13 13 12 12 11 11 11 10 10 11 10 10 10 10 9 9 9 8 8 7 7 5 4 7 8 8 9 10 9 10 10 10 10 10
16 16 17 17 16 15 14 14 13 13 12 12 11 11 11 10 10 10 10 10 9 9 9 8 8 8 7 7 7 6 4 3 3 6 7 8 9 8 9 9 10 10 9
14 15 16 15 15 14 14 14 13 13 12 12 11 11 11 11 10 9 10 9 9 8 8 8 7 7 7 7 6 6 5 5 4 6 5 9 9 8 8 8 8 9 8
14 13 14 15 13 13 13 13 13 13 12 11 10 10 10 8 9 8 10 9 8 7 7 7 6 6 6 7 6 5 6 2 5 4 5 11 7 7 7 7 7 7 7
16 14 12 13 13 12 10 10 9 9 9 8 8 9 6 5 4 6 10 8 7 7 7 6 5 6 6 6 8 7 3 3 4 4 7 9 6 6 6 6 6 6 7
16 14 13 12 12 11 8 8 6 5 6 7 8 7 5 5 5 5 5 7 6 7 5 7 6 3 2 2 1 2 2 2 2 3 8 8 6 6 6 6 6 6 6
15 15 13 13 12 10 9 7 7 6 6 6 7 7 6 4 4 4 3 4 3 3 2 2 2 2 2 2 1 1 2 1 2 3 7 7 5 5 5 5 5 5 5
15 14 14 13 12 10 8 7 7 6 6 6 5 5 5 4 4 4 3 2 2 2 3 2 2 3 2 2 1 1 1 2 1 2 5 7 6 5 5 5 4 4 5
15 15 14 13 12 11 8 7 6 6 5 6 5 6 5 4 4 3 3 2 2 2 1 2 3 3 2 2 2 2 2 2 3 2 4 7 7 5 5 4 4 3 4
14 14 14 13 13 12 10 9 7 6 6 6 5 6 5 4 4 3 3 3 2 2 3 2 2 2 3 3 2 2 2 2 2 2 2 2 6 8 6 5 4 3 3
13 14 14 12 13 12 9 8 6 6 6 5 5 6 6 5 5 4 3 3 3 3 3 2 2 2 2 2 2 2 2 2 3 3 3 2 2 4 7 6 4 4 4
13 13 14 13 13 12 10 8 7 6 5 5 5 5 6 6 5 4 2 3 3 3 2 3 2 1 2 2 2 2 2 2 2 2 2 3 3 2 3 7 6 4 4
12 13 13 13 13 12 9 7 6 6 5 4 5 5 6 5 5 4 3 3 3 3 2 1 2 1 1 2 2 2 1 2 2 2 3 3 3 4 3 4 5 5 5
12 13 13 12 12 10 8 8 8 7 6 5 5 6 6 6 5 4 3 4 3 3 2 4 3 4 2 1 2 3 3 3 3 2 1 1 3 2 3 2 1 1 4
14 14 14 13 12 11 9 7 6 6 6 6 5 6 7 6 6 5 3 4 3 3 3 3 2 2 2 2 3 3 4 5 4 3 2 2 2 2 3 3 2 1 1
15 15 13 13 13 12 11 8 7 6 6 6 7 6 7 7 6 4 5 3 3 4 3 3 4 4 2 3 2 3 3 2 4 4 2 2 2 1 2 3 3 2 2
15 14 14 14 13 13 12 11 12 9 8 8 7 6 7 7 6 6 5 4 3 3 3 4 3 3 3 3 3 2 3 4 2 3 4 4 3 2 1 0 2 2 2
15 14 14 14 13 13 13 12 12 10 8 7 8 8 7 7 6 6 5 4 4 3 3 2 2 3 3 3 2 3 2 2 4 3 2 3 3 3 2 1 0 1 1
14 13 14 15 14 14 14 13 13 12 11 10 10 9 8 6 6 7 6 5 4 3 4 3 3 3 1 1 2 2 2 3 3 3 3 4 3 2 2 0 1 1 1
Wind_Direction
153 141 143 146 142 138 135 132 129 127 125 123 121 119 117 114 111 108 104 102 102 101 101 102 102 102 101 101 100 101 103 105 106 107 107 107 108 111 112 117 121 106 108
147 140 145 146 144 140 136 132 129 128 126 124 122 120 118 116 113 111 108 106 104 102 101 101 101 101 100 100 100 102 103 105 108 110 115 114 109 108 109 102 86 102 111
145 141 148 146 145 141 137 133 131 130 128 125 124 122 120 117 114 112 109 107 106 104 103 103 102 101 100 100 101 103 104 105 110 124 144 123 111 107 105 101 102 110 110
145 146 150 145 146 142 139 136 133 131 129 127 126 124 121 118 115 112 110 108 107 106 104 103 102 101 101 101 102 103 104 107 118 160 135 110 112 109 110 109 111 113 112
148 147 141 149 148 144 142 139 137 134 133 131 128 126 122 118 114 112 112 109 107 105 104 102 101 101 102 102 103 104 106 112 144 153 96 102 105 112 114 113 114 114 112
151 149 142 153 148 146 144 141 139 137 136 133 130 127 123 119 115 113 112 110 109 107 105 103 103 103 104 107 108 108 112 138 186 105 107 109 107 115 117 115 115 115 114
154 148 144 153 150 149 147 143 141 140 137 133 131 127 123 120 118 114 113 110 110 108 105 104 104 103 104 107 112 114 118 198 112 102 105 99 101 115 117 117 116 116 116
155 149 143 153 152 151 149 147 144 143 139 136 133 130 126 123 119 115 115 112 111 109 107 105 104 101 100 104 111 119 135 230 121 109 105 101 103 117 119 119 120 119 119
156 150 151 156 156 154 151 149 146 144 141 137 136 134 130 126 122 118 116 114 114 113 111 109 106 101 97 101 111 118 128 292 120 110 110 104 113 119 121 123 125 124 124
159 156 158 158 158 159 156 153 150 147 143 140 139 137 132 131 129 128 132 117 117 118 117 113 109 103 100 102 111 125 151 224 128 119 108 107 121 125 126 127 129 130 130
164 163 163 158 161 163 158 151 155 150 145 148 145 140 156 154 140 151 111 119 122 121 120 116 112 114 125 125 121 145 195 200 114 104 92 106 130 132 133 135 136 137 137
169 168 169 161 162 164 157 152 161 160 153 162 149 155 158 128 132 117 115 124 124 125 131 122 127 165 208 155 148 191 186 135 119 122 102 119 139 142 141 144 146 145 143
171 170 167 163 167 165 158 160 161 154 150 155 151 150 142 149 145 137 143 144 147 160 155 147 181 177 157 96 156 172 87 114 120 114 112 133 149 153 152 154 157 158 158
174 173 169 166 168 169 164 161 162 158 157 158 152 164 156 154 151 139 145 137 154 150 136 164 146 120 131 158 171 133 134 167 116 102 117 142 158 162 160 160 165 169 169
175 174 171 171 168 167 165 170 164 160 159 151 153 158 162 159 158 144 134 143 159 150 163 172 148 134 151 163 165 138 146 102 121 143 122 144 162 168 167 166 174 174 181
178 175 170 174 169 167 168 169 158 159 155 157 160 153 170 168 152 148 153 161 166 179 137 178 152 167 181 147 156 149 196 151 148 170 144 148 160 167 170 170 169 172 185
178 174 172 172 169 170 170 169 161 161 162 162 151 152 166 171 155 167 159 177 158 149 152 182 166 183 187 178 171 172 181 183 163 162 164 155 157 161 161 163 163 168 190
177 174 174 173 169 170 169 167 162 165 161 159 155 155 162 163 168 184 168 157 156 182 181 171 204 199 192 204 181 194 165 168 182 181 169 175 179 159 156 152 156 167 181
175 172 173 172 170 169 166 163 161 158 161 161 160 159 159 167 175 192 169 134 181 182 189 206 147 209 192 204 185 178 193 165 177 193 165 168 166 166 151 147 157 169 180
175 171 171 170 169 167 164 161 160 161 164 167 166 157 161 168 177 189 168 156 192 174 174 157 141 161 197 213 216 141 173 154 185 158 202 162 163 175 167 150 164 165 171
172 171 171 171 170 168 167 172 170 170 169 168 169 158 167 172 173 191 169 155 204 170 173 176 182 166 185 188 201 173 159 160 147 165 192 173 157 149 149 165 175 171 167
175 174 175 178 176 176 172 172 173 166 169 167 165 159 172 173 175 179 175 183 182 164 174 181 212 223 168 202 246 214 185 164 176 144 163 169 159 166 177 168 144 189 260
179 179 178 178 178 177 170 168 162 159 169 169 170 168 173 172 172 172 177 186 178 199 168 192 200 217 206 188 261 278 260 190 153 150 138 123 142 166 176 149 169 172 212
182 180 179 177 176 174 173 176 175 178 178 174 172 163 166 169 169 169 175 172 189 183 156 198 181 213 229 212 183 265 324 353 275 169 171 151 146 153 99 172 139 159 193
182 180 178 176 178 176 181 181 185 185 179 168 166 159 169 166 173 174 171 170 181 181 160 177 162 236 225 250 223 204 203 219 261 266 196 168 173 161 152 172 172 175 156
181 180 178 178 181 180 184 186 190 185 178 170 170 166 174 168 174 174 171 175 186 170 161 174 182 189 249 299 282 250 238 241 241 250 234 209 193 159 158 139 230 183 186